| time (UTC) | temp F | wind direction | speed MPH | gust MPH | rain 1hr in | rain 24hr in | rain mn in | humidity % | barometer mb |
| 20260505124536 | 64 | 360 | 0.0 | 0.0 | 0.00 | 0.00 | 0.21 | 79 | 1012.3 |
| 20260505123032 | 63 | 360 | 0.0 | 0.0 | 0.00 | 0.00 | 0.21 | 81 | 1012.4 |
| 20260505121536 | 63 | 360 | 0.0 | 0.0 | 0.00 | 0.00 | 0.21 | 83 | 1012.5 |
| 20260505120028 | 62 | 360 | 1.0 | 0.0 | 0.00 | 0.00 | 0.21 | 82 | 1012.6 |
| 20260505114537 | 62 | 360 | 1.0 | 0.0 | 0.00 | 0.00 | 0.21 | 85 | 1012.7 |
| 20260505113028 | 61 | 360 | 1.0 | 0.0 | 0.00 | 0.00 | 0.21 | 85 | 1012.7 |
| 20260505111533 | 60 | 360 | 1.0 | 0.0 | 0.00 | 0.00 | 0.21 | 85 | 1012.8 |
| 20260505101525 | 59 | 360 | 1.0 | 0.0 | 0.00 | 0.00 | 0.21 | 88 | 1013.0 |
| 20260505100029 | 59 | 360 | 0.0 | 0.0 | 0.00 | 0.00 | 0.20 | 87 | 1012.9 |
| 20260505094523 | 59 | 360 | 0.0 | 0.0 | 0.00 | 0.00 | 0.20 | 89 | 1013.0 |
| 20260505093022 | 59 | 360 | 0.0 | 0.0 | 0.00 | 0.00 | 0.19 | 88 | 1013.3 |
| 20260505091522 | 59 | 360 | 0.0 | 0.0 | 0.00 | 0.00 | 0.17 | 87 | 1013.3 |
| 20260505090034 | 59 | 360 | 0.0 | 0.0 | 0.00 | 0.00 | 0.16 | 87 | 1013.3 |
| 20260505084529 | 59 | 360 | 0.0 | 0.0 | 0.00 | 0.00 | 0.16 | 87 | 1013.1 |
| 20260505083032 | 58 | 360 | 0.0 | 0.0 | 0.00 | 0.00 | 0.16 | 86 | 1013.0 |
| 20260505081523 | 58 | 360 | 0.0 | 0.0 | 0.00 | 0.00 | 0.16 | 88 | 1012.9 |
| 20260505080018 | 57 | 360 | 0.0 | 0.0 | 0.00 | 0.00 | 0.16 | 87 | 1012.7 |
| 20260505074515 | 57 | 360 | 0.0 | 0.0 | 0.00 | 0.00 | 0.16 | 87 | 1012.9 |
| 20260505073012 | 57 | 360 | 0.0 | 0.0 | 0.00 | 0.00 | 0.13 | 85 | 1013.1 |
| 20260505071522 | 58 | 360 | 0.0 | 0.0 | 0.00 | 0.00 | 0.08 | 83 | 1013.1 |
| 20260505070007 | 59 | 360 | 0.0 | 0.0 | 0.00 | 0.00 | 0.04 | 79 | 1013.2 |
| 20260505064504 | 60 | 360 | 0.0 | 0.0 | 0.00 | 0.00 | 0.00 | 74 | 1013.0 |
| 20260505063002 | 60 | 360 | 0.0 | 0.0 | 0.00 | 0.00 | 0.00 | 71 | 1013.0 |
| 20260505061505 | 60 | 360 | 0.0 | 0.0 | 0.00 | 0.00 | 0.00 | 71 | 1012.8 |
| 20260505060059 | 60 | 360 | 0.0 | 0.0 | 0.00 | 0.00 | 0.00 | 71 | 1012.7 |
| 20260505054614 | 59 | 360 | 1.0 | 0.0 | 0.00 | 0.00 | 0.00 | 70 | 1012.5 |
| 20260505053056 | 59 | 360 | 1.0 | 0.0 | 0.00 | 0.00 | 0.00 | 70 | 1012.4 |
| 20260505051558 | 60 | 360 | 0.0 | 0.0 | 0.00 | 0.00 | 0.00 | 70 | 1012.2 |
| 20260505041549 | 60 | 360 | 0.0 | 0.0 | 0.00 | 0.00 | 0.00 | 67 | 1012.3 |
| 20260505040048 | 60 | 360 | 0.0 | 0.0 | 0.00 | 0.00 | 0.00 | 68 | 1012.2 |
| 20260505034547 | 60 | 360 | 0.0 | 0.0 | 0.00 | 0.00 | 0.00 | 66 | 1012.3 |
| 20260505033050 | 60 | 360 | 0.0 | 0.0 | 0.00 | 0.00 | 0.00 | 67 | 1012.2 |
| 20260505031544 | 61 | 360 | 0.0 | 0.0 | 0.00 | 0.00 | 0.00 | 65 | 1012.4 |
| 20260505030046 | 61 | 360 | 0.0 | 0.0 | 0.00 | 0.00 | 0.00 | 64 | 1012.4 |
| 20260505024604 | 61 | 360 | 0.0 | 0.0 | 0.00 | 0.00 | 0.00 | 64 | 1012.3 |
| 20260505023042 | 61 | 360 | 0.0 | 0.0 | 0.00 | 0.00 | 0.00 | 64 | 1012.5 |
| 20260505021554 | 61 | 360 | 0.0 | 0.0 | 0.00 | 0.00 | 0.00 | 64 | 1012.6 |
| 20260505020045 | 61 | 360 | 0.0 | 0.0 | 0.00 | 0.00 | 0.00 | 64 | 1012.6 |
| 20260505014539 | 61 | 360 | 0.0 | 0.0 | 0.00 | 0.00 | 0.00 | 63 | 1012.6 |
| 20260505013036 | 61 | 360 | 0.0 | 0.0 | 0.00 | 0.00 | 0.00 | 62 | 1012.8 |
| 20260505011548 | 61 | 360 | 0.0 | 0.0 | 0.00 | 0.00 | 0.00 | 63 | 1013.0 |
| 20260505010037 | 61 | 360 | 0.0 | 0.0 | 0.00 | 0.00 | 0.00 | 63 | 1013.0 |
| 20260505004541 | 61 | 360 | 0.0 | 0.0 | 0.00 | 0.00 | 0.00 | 62 | 1013.2 |
| 20260505003032 | 61 | 360 | 0.0 | 0.0 | 0.00 | 0.00 | 0.00 | 63 | 1013.3 |
| 20260505001532 | 61 | 360 | 1.0 | 0.0 | 0.00 | 0.00 | 0.00 | 63 | 1013.5 |
| 20260505000029 | 61 | 360 | 0.0 | 0.0 | 0.00 | 0.00 | 0.00 | 63 | 1013.6 |
| 20260504234528 | 62 | 360 | 1.0 | 0.0 | 0.00 | 0.00 | 0.00 | 63 | 1013.8 |
| 20260504233026 | 62 | 360 | 1.0 | 0.0 | 0.00 | 0.00 | 0.00 | 61 | 1014.0 |
| 20260504231524 | 62 | 360 | 1.0 | 0.0 | 0.00 | 0.00 | 0.00 | 61 | 1014.2 |
| 20260504230026 | 62 | 360 | 1.0 | 0.0 | 0.00 | 0.00 | 0.00 | 61 | 1014.3 |
| 20260504224522 | 62 | 360 | 1.0 | 0.0 | 0.00 | 0.00 | 0.00 | 62 | 1014.4 |
| 20260504223019 | 62 | 360 | 1.0 | 0.0 | 0.00 | 0.00 | 0.00 | 62 | 1014.5 |
| 20260504221518 | 62 | 360 | 1.0 | 0.0 | 0.00 | 0.00 | 0.00 | 63 | 1014.6 |
| 20260504220021 | 62 | 360 | 0.0 | 0.0 | 0.00 | 0.00 | 0.00 | 63 | 1014.8 |
| 20260504214516 | 62 | 360 | 1.0 | 0.0 | 0.00 | 0.00 | 0.00 | 64 | 1014.7 |
| 20260504213016 | 62 | 360 | 0.0 | 0.0 | 0.00 | 0.00 | 0.00 | 65 | 1014.9 |
| 20260504211515 | 62 | 360 | 0.0 | 0.0 | 0.00 | 0.00 | 0.00 | 65 | 1015.0 |
| 20260504210015 | 63 | 360 | 0.0 | 0.0 | 0.00 | 0.00 | 0.00 | 65 | 1015.1 |
| 20260504204517 | 63 | 360 | 0.0 | 0.0 | 0.00 | 0.00 | 0.00 | 64 | 1015.1 |
| 20260504203016 | 64 | 360 | 1.0 | 0.0 | 0.00 | 0.00 | 0.00 | 63 | 1015.1 |
| 20260504201514 | 65 | 360 | 0.0 | 0.0 | 0.00 | 0.00 | 0.00 | 62 | 1014.9 |
| 20260504200017 | 65 | 360 | 0.0 | 0.0 | 0.00 | 0.00 | 0.00 | 61 | 1014.8 |
| 20260504194513 | 66 | 360 | 0.0 | 0.0 | 0.00 | 0.00 | 0.00 | 60 | 1014.7 |
| 20260504193012 | 66 | 360 | 0.0 | 0.0 | 0.00 | 0.00 | 0.00 | 58 | 1014.7 |
| 20260504191514 | 67 | 360 | 2.0 | 0.0 | 0.00 | 0.00 | 0.00 | 57 | 1014.5 |
| 20260504190013 | 67 | 360 | 1.0 | 0.0 | 0.00 | 0.00 | 0.00 | 55 | 1014.4 |
| 20260504184516 | 68 | 360 | 0.0 | 0.0 | 0.00 | 0.00 | 0.00 | 54 | 1014.3 |
| 20260504183011 | 68 | 360 | 1.0 | 0.0 | 0.00 | 0.00 | 0.00 | 52 | 1014.3 |
| 20260504181510 | 69 | 360 | 2.0 | 0.0 | 0.00 | 0.00 | 0.00 | 51 | 1014.4 |
| 20260504180010 | 70 | 360 | 2.0 | 0.0 | 0.00 | 0.00 | 0.00 | 49 | 1014.4 |
| 20260504174510 | 71 | 360 | 1.0 | 0.0 | 0.00 | 0.00 | 0.00 | 47 | 1014.3 |
| 20260504173010 | 72 | 360 | 3.0 | 0.0 | 0.00 | 0.00 | 0.00 | 46 | 1014.3 |
| 20260504171508 | 72 | 360 | 3.0 | 0.0 | 0.00 | 0.00 | 0.00 | 45 | 1014.2 |